Game: Final Fantasy VIII
Bid: Sing "Eyes on Me" Total: $10,059.32 Goal: $10,000.00

Description
If met, the runners will sing Eyes on Me.
NameAscDsc Time ReceivedAscDsc AmountAscDsc
ozzfreak 2020-01-07T23:44:34.802759-06:00 $200.00
CronoLink91 2020-01-07T23:28:37.692962-06:00 $25.00
Razelgaad 2020-01-07T23:24:12.469413-06:00 $25.00
The Sager family 2020-01-07T23:03:14.732127-06:00 $25.00
suurdeeg 2020-01-07T23:01:30.067087-06:00 $25.00
(Anonymous) 2020-01-07T22:59:50.380953-06:00 $10.00
Tallguy452 2020-01-07T22:59:36.339976-06:00 $25.00
Hartwolf 2020-01-07T22:42:25.851853-06:00 $25.00
kineticmedic 2020-01-07T22:42:17.727135-06:00 $10.00
Frigid 2020-01-07T22:30:10.060683-06:00 $25.00
Cloudybear9 2020-01-07T22:29:10.878255-06:00 $20.00
(Anonymous) 2020-01-07T22:27:59.299434-06:00 $25.00
Kubly 2020-01-07T22:24:14.180918-06:00 $15.00
Prometheus 2020-01-07T22:21:18.233324-06:00 $25.00
(Anonymous) 2020-01-07T22:20:40.259618-06:00 $10.00
The Guild "Loktar Ogar" 2020-01-07T22:13:02.972636-06:00 $50.00
Ariamaki 2020-01-07T22:08:51.527402-06:00 $30.00
(Anonymous) 2020-01-07T22:03:36.078595-06:00 $5.00
(Anonymous) 2020-01-07T22:00:34.647737-06:00 $25.00
Lylo 2020-01-07T21:55:52.526205-06:00 $250.00
Modus Ponens 2020-01-07T21:55:39.011981-06:00 $64.00
VonMoltke 2020-01-07T21:55:08.643756-06:00 $10.00
Peachy 2020-01-07T21:54:51.433827-06:00 $15.00
Serah Valentine 2020-01-07T21:54:43.381636-06:00 $5.00
Jobias 2020-01-07T21:54:07.004943-06:00 $30.00
NatsFan 2020-01-07T21:53:46.785547-06:00 $10.00
Davible 2020-01-07T21:53:35.288324-06:00 $10.00
AceBureido 2020-01-07T21:53:01.127345-06:00 $25.00
bpb123 2020-01-07T21:52:14.646706-06:00 $25.00
Foxxbird 2020-01-07T21:51:44.837062-06:00 $25.00
Psychofish 2020-01-07T21:51:31.244870-06:00 $10.00
Kandiane 2020-01-07T21:49:58.562840-06:00 $25.00
Zoatebix 2020-01-07T21:49:52.800947-06:00 $25.00
(Anonymous) 2020-01-07T21:49:36.577359-06:00 $10.00
mattman 2020-01-07T21:48:04.804075-06:00 $10.00
Scarilo 2020-01-07T21:47:56.682236-06:00 $75.00
Spiza 2020-01-07T21:47:48.605538-06:00 $10.00
Sarzumin 2020-01-07T21:47:29.268104-06:00 $10.00
Link 2020-01-07T21:46:28.339194-06:00 $127.00
Rose 2020-01-07T21:45:32.086350-06:00 $10.00
Jenni 2020-01-07T21:45:31.389461-06:00 $20.00
Willow and Orloth 2020-01-07T21:44:12.681686-06:00 $100.00
Nightbreeze 2020-01-07T21:43:47.692148-06:00 $10.00
Dracobanana 2020-01-07T21:43:07.261593-06:00 $25.00
SkeletalMoth 2020-01-07T21:42:50.615572-06:00 $100.00
Allen 2020-01-07T21:37:00.075909-06:00 $50.00
stephen_irl 2020-01-07T21:35:52.017942-06:00 $50.00
TheChainNerd 2020-01-07T21:32:55.007379-06:00 $25.00
Sheepy 2020-01-07T21:30:05.477374-06:00 $100.00
(Anonymous) 2020-01-07T21:27:23.343726-06:00 $10.00

|< >|

Back to Bid Index

Back to Main Index

Running on Django with Python
Python code by UraniumAnchor, SMK, and jdeng
CSS by Cool Matty